Location: Hokitika
(42.7170°S, 170.9670°E)
Time: 06:29:31
(UTC+12:00)

Cosmos 841 Rocket - Pass Details

Date: 24 January 2019
Orbit: 746 x 773 km, 74.0° (Epoch: 21 April)

Event Time Altitude Azimuth Distance (km) Brightness Sun altitude
Rises 22:53:41 0° 204° (SSW) 3,287 8.2 -16.2°
Reaches altitude 10° 22:56:07 10° 207° (SSW) 2,353 7.2 -16.5°
Maximum altitude 23:01:23 60° 285° (WNW) 896 3.9 -17.1°
Enters shadow 23:04:50 21° 359° (N) 1,687 4.9 -17.6°
